Hourly Data Report for October 22, 2019

All times are specified in Local Standard Time (LST). Add 1 hour to adjust for Daylight Saving Time where and when it is observed.

WOODSTOCK NEWBRIDGE
NEW BRUNSWICK
Current Station Operator: ECCC - MSC

46°09'08.000" N
67°32'34.000" W
154.00 m
8105603
71606
EWD

Download Data

Hourly Data (October 2019)
Hourly Data Report for October 22, 2019
TIME Temp Definition
°C
Dew Point Definition
°C
Rel Hum Definition
%
Wind Dir Definition
10's deg

Wind Spd Definition
km/h
Visibility Definition
km
Stn Press Definition
kPa
Hmdx Definition


Wind Chill Definition


Weather Definition


00:00 1.3 0.9 97   0   100.55     LegendNANA
01:00 0.1 -0.5 96 31 1   100.56     LegendNANA
02:00 -0.3 -0.9 95   0   100.56     LegendNANA
03:00 -0.8 -1.3 96   0   100.62     LegendNANA
04:00 -1.0 -1.8 94   0   100.64     LegendNANA
05:00 -0.3 -0.6 98 1 4   100.61   -2 LegendNANA
06:00 -1.2 -1.9 95 0 1   100.65   -2 LegendNANA
07:00 -1.5 -2.2 96   0   100.70     LegendNANA
08:00 0.6 0.2 97 1 1   100.70     LegendNANA
09:00 4.2 3.4 95 13 3   100.72     LegendNANA
10:00 6.3 4.5 88 9 9   100.70     LegendNANA
11:00 7.6 4.5 81 9 7   100.71     LegendNANA
12:00 9.0 4.1 72 9 10   100.68     LegendNANA
13:00 11.0 4.8 66 10 9   100.66     LegendNANA
14:00 11.1 4.1 62 9 10   100.62     LegendNANA
15:00 11.4 4.6 63 10 11   100.59     LegendNANA
16:00 11.1 4.1 62 9 9   100.57     LegendNANA
17:00 10.5 4.0 64 9 9   100.56     LegendNANA
18:00 9.4 4.2 70 7 5   100.55     LegendNANA
19:00 9.4 5.3 76 8 8   100.49     LegendNANA
20:00 9.2 5.8 79 9 13   100.46     LegendNANA
21:00 9.1 5.2 77 9 14   100.44     LegendNANA
22:00 8.3 4.7 78 9 15   100.39     LegendNANA
23:00 7.9 4.4 79 10 15   100.37     LegendNANA

Notes on Data Quality.

Legend

  • E = Estimated
  • M = Missing
  • NA = Not Available
Date modified: